{"data":{"norad_id":48553,"intl_designator":"2021-041A","name":"STARLINK-2063","alt_names":[],"object_type":"PAYLOAD","status":"ACTIVE","operator":null,"country":"US","launch_date":"2021-05-15","launch_site_code":"AFETR","launch_vehicle":null,"mission":null,"orbit_class":"UNKNOWN","rcs_meters":null,"size_class":null,"mass_kg":null,"dimensions":null,"purposes":["comms"],"wikipedia_slug":null,"has_3d_model":false,"image_url":null,"decayed_at":null,"tle_current":{"epoch":"2026-05-25T05:25:15.779712Z","epoch_age_seconds":58828,"freshness":"FRESH","line1":"1 48553U 21041A   26145.22587708  .00000601  00000+0  31125-4 0  9992","line2":"2 48553  53.1595 130.8311 0001497  92.8110 267.3063 15.31702361277006","mean_motion":15.31702361,"eccentricity":0.0001497,"inclination_deg":53.1595,"raan_deg":130.8311,"arg_perigee_deg":92.811,"mean_anomaly_deg":267.3063,"bstar":3.1125e-5,"rev_number":27700,"period_min":94.013043047075,"perigee_km":469.70768138395,"apogee_km":471.75823304914,"semimajor_km":6848.8699572165,"source":"CELESTRAK","updated_at":"2026-05-25T13:38:16.724105Z"}}}